Time,TemperatureF,DewpointF,PressureIn,WindDirection,WindDirectionDegrees,WindSpeedMPH,WindSpeedGustMPH,Humidity,HourlyPrecipIn,Conditions,Clouds,dailyrainin,SoftwareType,DateUTC
2013-06-21 00:01:00,81.1,68.7,29.98,South,169,16.0,23.0,66,0.00,,,0.00,meteohub,2013-06-21 05:01:00,
2013-06-21 00:06:00,81.1,68.7,29.98,SE,142,4.0,23.0,66,0.00,,,0.00,meteohub,2013-06-21 05:06:00,
2013-06-21 00:11:00,81.0,68.5,29.98,SSE,155,16.0,23.0,66,0.00,,,0.00,meteohub,2013-06-21 05:11:00,
2013-06-21 00:17:00,81.0,68.5,29.99,SSE,148,14.0,22.0,66,0.00,,,0.00,meteohub,2013-06-21 05:17:00,
2013-06-21 00:22:00,81.0,68.9,29.99,SSW,195,8.0,21.0,67,0.00,,,0.00,meteohub,2013-06-21 05:22:00,
2013-06-21 00:27:00,80.8,68.7,29.99,SSE,147,6.0,21.0,67,0.00,,,0.00,meteohub,2013-06-21 05:27:00,
2013-06-21 00:32:00,80.4,68.9,29.99,SE,139,5.0,21.0,68,0.00,,,0.00,meteohub,2013-06-21 05:32:00,
2013-06-21 00:37:00,80.4,68.9,29.99,SE,138,12.0,16.0,68,0.00,,,0.00,meteohub,2013-06-21 05:37:00,
2013-06-21 00:42:00,80.2,68.7,29.99,ESE,121,15.0,19.0,68,0.00,,,0.00,meteohub,2013-06-21 05:42:00,
2013-06-21 00:47:00,80.2,69.1,29.98,ESE,116,9.0,19.0,69,0.00,,,0.00,meteohub,2013-06-21 05:47:00,
2013-06-21 00:52:00,80.2,69.1,29.98,SE,130,6.0,19.0,69,0.00,,,0.00,meteohub,2013-06-21 05:52:00,
2013-06-21 00:57:00,80.2,69.1,29.98,SE,145,13.0,19.0,69,0.00,,,0.00,meteohub,2013-06-21 05:57:00,
2013-06-21 01:02:00,80.1,68.9,29.98,SE,143,12.0,19.0,69,0.00,,,0.00,meteohub,2013-06-21 06:02:00,
2013-06-21 01:07:00,80.2,69.1,29.98,SSE,150,15.0,19.0,69,0.00,,,0.00,meteohub,2013-06-21 06:07:00,
2013-06-21 01:12:00,80.2,69.1,29.98,SSW,197,12.0,22.0,69,0.00,,,0.00,meteohub,2013-06-21 06:12:00,
2013-06-21 01:17:00,80.2,69.1,29.98,SSW,197,6.0,22.0,69,0.00,,,0.00,meteohub,2013-06-21 06:17:00,
2013-06-21 01:22:00,80.2,69.1,29.98,SSE,160,18.0,22.0,69,0.00,,,0.00,meteohub,2013-06-21 06:22:00,
2013-06-21 01:27:00,80.2,69.1,29.98,SE,135,7.0,22.0,69,0.00,,,0.00,meteohub,2013-06-21 06:27:00,
2013-06-21 01:32:00,80.2,69.1,29.97,SSE,167,13.0,22.0,69,0.00,,,0.00,meteohub,2013-06-21 06:32:00,
2013-06-21 01:37:00,80.2,68.7,29.97,SSE,153,10.0,22.0,68,0.00,,,0.00,meteohub,2013-06-21 06:37:00,
2013-06-21 01:42:00,80.4,68.9,29.97,SSE,149,19.0,21.0,68,0.00,,,0.00,meteohub,2013-06-21 06:42:00,
2013-06-21 01:47:00,80.4,68.9,29.97,SSE,153,23.0,27.0,68,0.00,,,0.00,meteohub,2013-06-21 06:47:00,
2013-06-21 01:52:00,80.2,68.7,29.96,SSE,163,11.0,27.0,68,0.00,,,0.00,meteohub,2013-06-21 06:52:00,
2013-06-21 01:57:00,80.2,68.7,29.97,SSE,155,14.0,27.0,68,0.00,,,0.00,meteohub,2013-06-21 06:57:00,
2013-06-21 02:02:00,80.2,68.7,29.97,SW,224,7.0,24.0,68,0.00,,,0.00,meteohub,2013-06-21 07:02:00,
2013-06-21 02:07:00,80.1,68.5,29.97,SE,146,19.0,23.0,68,0.00,,,0.00,meteohub,2013-06-21 07:07:00,
2013-06-21 02:12:00,80.1,68.2,29.97,South,172,5.0,23.0,67,0.00,,,0.00,meteohub,2013-06-21 07:12:00,
2013-06-21 02:17:00,79.9,68.4,29.96,SE,132,13.0,22.0,68,0.00,,,0.00,meteohub,2013-06-21 07:17:00,
2013-06-21 02:22:00,79.9,68.4,29.96,ESE,118,12.0,22.0,68,0.00,,,0.00,meteohub,2013-06-21 07:22:00,
2013-06-21 02:27:00,79.9,68.0,29.96,SSE,155,14.0,22.0,67,0.00,,,0.00,meteohub,2013-06-21 07:27:00,
2013-06-21 02:32:00,79.9,68.0,29.96,SSE,167,11.0,22.0,67,0.00,,,0.00,meteohub,2013-06-21 07:32:00,
2013-06-21 02:37:00,80.2,67.8,29.96,South,180,8.0,26.0,66,0.00,,,0.00,meteohub,2013-06-21 07:37:00,
2013-06-21 02:42:00,80.2,67.8,29.96,SSE,166,16.0,26.0,66,0.00,,,0.00,meteohub,2013-06-21 07:42:00,
2013-06-21 02:47:00,80.2,67.8,29.96,SSE,155,19.0,27.0,66,0.00,,,0.00,meteohub,2013-06-21 07:47:00,
2013-06-21 02:52:00,80.1,67.6,29.96,SSE,155,6.0,27.0,66,0.00,,,0.00,meteohub,2013-06-21 07:52:00,
2013-06-21 02:57:00,79.9,68.0,29.96,South,177,8.0,26.0,67,0.00,,,0.00,meteohub,2013-06-21 07:57:00,
2013-06-21 03:02:00,79.5,68.0,29.96,WSW,241,8.0,24.0,68,0.00,,,0.00,meteohub,2013-06-21 08:02:00,
2013-06-21 03:07:00,79.5,68.0,29.96,SSE,153,12.0,21.0,68,0.00,,,0.00,meteohub,2013-06-21 08:07:00,
2013-06-21 03:12:00,79.5,67.6,29.96,SSE,160,14.0,24.0,67,0.00,,,0.00,meteohub,2013-06-21 08:12:00,
2013-06-21 03:17:00,79.5,67.6,29.95,South,179,7.0,24.0,67,0.00,,,0.00,meteohub,2013-06-21 08:17:00,
2013-06-21 03:22:00,79.7,67.8,29.95,SSE,148,14.0,22.0,67,0.00,,,0.00,meteohub,2013-06-21 08:22:00,
2013-06-21 03:27:00,79.7,67.8,29.95,SSW,211,15.0,23.0,67,0.00,,,0.00,meteohub,2013-06-21 08:27:00,
2013-06-21 03:32:00,79.9,68.0,29.95,SSE,149,10.0,23.0,67,0.00,,,0.00,meteohub,2013-06-21 08:32:00,
2013-06-21 03:37:00,79.7,67.8,29.95,SSW,203,9.0,25.0,67,0.00,,,0.00,meteohub,2013-06-21 08:37:00,
2013-06-21 03:42:00,79.5,67.6,29.95,SSE,156,18.0,25.0,67,0.00,,,0.00,meteohub,2013-06-21 08:42:00,
2013-06-21 03:47:00,79.7,67.8,29.95,SSW,207,14.0,25.0,67,0.00,,,0.00,meteohub,2013-06-21 08:47:00,
2013-06-21 03:52:00,79.5,67.6,29.95,SE,135,10.0,24.0,67,0.00,,,0.00,meteohub,2013-06-21 08:52:00,
2013-06-21 03:57:00,79.3,67.5,29.96,South,180,7.0,24.0,67,0.00,,,0.00,meteohub,2013-06-21 08:57:00,
2013-06-21 04:02:00,79.3,67.5,29.96,SSW,195,12.0,22.0,67,0.00,,,0.00,meteohub,2013-06-21 09:02:00,
2013-06-21 04:07:00,79.3,67.5,29.96,South,183,7.0,22.0,67,0.00,,,0.00,meteohub,2013-06-21 09:07:00,
2013-06-21 04:12:00,79.3,67.5,29.96,SSE,166,13.0,22.0,67,0.00,,,0.00,meteohub,2013-06-21 09:12:00,
2013-06-21 04:17:00,79.3,67.5,29.96,South,173,15.0,24.0,67,0.00,,,0.00,meteohub,2013-06-21 09:17:00,
2013-06-21 04:22:00,79.3,67.5,29.96,SE,131,11.0,24.0,67,0.00,,,0.00,meteohub,2013-06-21 09:22:00,
2013-06-21 04:27:00,79.3,67.5,29.96,SSE,153,3.0,24.0,67,0.00,,,0.00,meteohub,2013-06-21 09:27:00,
2013-06-21 04:32:00,79.3,66.9,29.96,SE,146,16.0,21.0,66,0.00,,,0.00,meteohub,2013-06-21 09:32:00,
2013-06-21 04:37:00,79.3,66.9,29.96,SSW,210,7.0,23.0,66,0.00,,,0.00,meteohub,2013-06-21 09:37:00,
2013-06-21 04:42:00,79.3,67.5,29.96,SSE,153,11.0,23.0,67,0.00,,,0.00,meteohub,2013-06-21 09:42:00,
2013-06-21 04:47:00,79.2,67.3,29.96,South,170,10.0,23.0,67,0.00,,,0.00,meteohub,2013-06-21 09:47:00,
2013-06-21 04:52:00,79.2,67.3,29.96,SSW,210,17.0,23.0,67,0.00,,,0.00,meteohub,2013-06-21 09:52:00,
2013-06-21 04:57:00,79.2,67.3,29.96,SSW,195,8.0,19.0,67,0.00,,,0.00,meteohub,2013-06-21 09:57:00,
2013-06-21 05:02:00,79.0,67.1,29.96,SSW,206,12.0,19.0,67,0.00,,,0.00,meteohub,2013-06-21 10:02:00,
2013-06-21 05:07:00,79.0,67.1,29.96,SSW,197,9.0,22.0,67,0.00,,,0.00,meteohub,2013-06-21 10:07:00,
2013-06-21 05:12:00,78.8,67.3,29.96,SSE,167,13.0,22.0,68,0.00,,,0.00,meteohub,2013-06-21 10:12:00,
2013-06-21 05:17:00,78.6,67.1,29.97,SSW,211,14.0,22.0,68,0.00,,,0.00,meteohub,2013-06-21 10:17:00,
2013-06-21 05:22:00,78.6,67.1,29.97,SW,221,13.0,22.0,68,0.00,,,0.00,meteohub,2013-06-21 10:22:00,
2013-06-21 05:27:00,78.6,67.1,29.97,South,177,8.0,22.0,68,0.00,,,0.00,meteohub,2013-06-21 10:27:00,
2013-06-21 05:32:00,78.4,66.9,29.97,SE,141,6.0,22.0,68,0.00,,,0.00,meteohub,2013-06-21 10:32:00,
2013-06-21 05:37:00,78.4,66.9,29.97,SSW,195,9.0,21.0,68,0.00,,,0.00,meteohub,2013-06-21 10:37:00,
2013-06-21 05:42:00,78.3,67.3,29.97,SW,229,10.0,21.0,69,0.00,,,0.00,meteohub,2013-06-21 10:42:00,
2013-06-21 05:47:00,78.1,67.1,29.98,SE,138,6.0,21.0,69,0.00,,,0.00,meteohub,2013-06-21 10:47:00,
2013-06-21 05:52:00,77.9,67.3,29.98,SE,129,13.0,21.0,70,0.00,,,0.00,meteohub,2013-06-21 10:52:00,
2013-06-21 05:57:00,77.7,67.1,29.98,SSE,159,4.0,17.0,70,0.00,,,0.00,meteohub,2013-06-21 10:57:00,
2013-06-21 06:02:00,77.7,67.1,29.98,SSE,149,12.0,17.0,70,0.00,,,0.00,meteohub,2013-06-21 11:02:00,
2013-06-21 06:07:00,77.5,66.9,29.98,SSE,152,10.0,20.0,70,0.00,,,0.00,meteohub,2013-06-21 11:07:00,
2013-06-21 06:12:00,77.5,67.5,29.98,SSE,152,6.0,20.0,71,0.00,,,0.00,meteohub,2013-06-21 11:12:00,
2013-06-21 06:17:00,77.4,67.3,29.98,South,173,17.0,22.0,71,0.00,,,0.00,meteohub,2013-06-21 11:17:00,
2013-06-21 06:22:00,77.4,67.3,29.98,SSE,149,5.0,22.0,71,0.00,,,0.00,meteohub,2013-06-21 11:22:00,
2013-06-21 06:27:00,77.4,67.3,29.98,SW,217,5.0,22.0,71,0.00,,,0.00,meteohub,2013-06-21 11:27:00,
2013-06-21 06:32:00,77.4,67.3,29.98,ESE,121,6.0,22.0,71,0.00,,,0.00,meteohub,2013-06-21 11:32:00,
2013-06-21 06:37:00,77.4,67.3,29.99,SSW,193,7.0,19.0,71,0.00,,,0.00,meteohub,2013-06-21 11:37:00,
2013-06-21 06:42:00,77.4,67.3,29.99,SSE,166,8.0,19.0,71,0.00,,,0.00,meteohub,2013-06-21 11:42:00,
2013-06-21 06:47:00,77.5,67.5,29.99,SSE,152,10.0,19.0,71,0.00,,,0.00,meteohub,2013-06-21 11:47:00,
2013-06-21 06:52:00,77.5,67.5,29.99,SSE,165,6.0,19.0,71,0.00,,,0.00,meteohub,2013-06-21 11:52:00,
2013-06-21 06:57:00,77.5,67.5,29.98,SSE,165,9.0,19.0,71,0.00,,,0.00,meteohub,2013-06-21 11:57:00,
2013-06-21 07:02:00,77.7,67.1,29.99,SSE,147,16.0,19.0,70,0.00,,,0.00,meteohub,2013-06-21 12:02:00,
2013-06-21 07:07:00,78.1,67.5,29.98,SSW,212,4.0,19.0,70,0.00,,,0.00,meteohub,2013-06-21 12:07:00,
2013-06-21 07:12:00,78.1,67.5,29.98,SW,234,9.0,19.0,70,0.00,,,0.00,meteohub,2013-06-21 12:12:00,
2013-06-21 07:17:00,78.1,67.5,29.98,WSW,245,6.0,17.0,70,0.00,,,0.00,meteohub,2013-06-21 12:17:00,
2013-06-21 07:22:00,78.3,67.6,29.99,SSE,152,9.0,17.0,70,0.00,,,0.00,meteohub,2013-06-21 12:22:00,
2013-06-21 07:27:00,78.3,67.6,29.98,SSE,152,8.0,19.0,70,0.00,,,0.00,meteohub,2013-06-21 12:27:00,
2013-06-21 07:32:00,78.3,67.6,29.99,South,180,12.0,19.0,70,0.00,,,0.00,meteohub,2013-06-21 12:32:00,
2013-06-21 07:37:00,78.1,67.5,29.99,ESE,108,7.0,19.0,70,0.00,,,0.00,meteohub,2013-06-21 12:37:00,
2013-06-21 07:42:00,78.1,67.5,29.98,South,188,11.0,17.0,70,0.00,,,0.00,meteohub,2013-06-21 12:42:00,
2013-06-21 07:47:00,78.3,67.6,29.99,South,170,8.0,17.0,70,0.00,,,0.00,meteohub,2013-06-21 12:47:00,
2013-06-21 07:52:00,78.4,67.5,29.99,SW,215,3.0,16.0,69,0.00,,,0.00,meteohub,2013-06-21 12:52:00,
2013-06-21 07:57:00,78.8,67.3,29.99,SSE,155,9.0,16.0,68,0.00,,,0.00,meteohub,2013-06-21 12:57:00,
2013-06-21 08:02:00,79.2,67.6,29.99,SSE,148,10.0,16.0,68,0.00,,,0.00,meteohub,2013-06-21 13:02:00,
2013-06-21 08:07:00,79.5,67.6,29.99,SSW,206,6.0,17.0,67,0.00,,,0.00,meteohub,2013-06-21 13:07:00,
2013-06-21 08:12:00,79.7,67.8,29.99,SSW,211,5.0,22.0,67,0.00,,,0.00,meteohub,2013-06-21 13:12:00,
2013-06-21 08:17:00,80.2,67.8,29.99,SW,233,5.0,22.0,66,0.00,,,0.00,meteohub,2013-06-21 13:17:00,
2013-06-21 08:22:00,80.4,67.6,29.99,SSW,208,15.0,22.0,65,0.00,,,0.00,meteohub,2013-06-21 13:22:00,
2013-06-21 08:27:00,80.8,68.0,29.99,SE,137,12.0,19.0,65,0.00,,,0.00,meteohub,2013-06-21 13:27:00,
2013-06-21 08:32:00,81.0,67.6,29.99,SSE,160,6.0,21.0,64,0.00,,,0.00,meteohub,2013-06-21 13:32:00,
2013-06-21 08:37:00,81.1,67.8,29.99,SE,139,19.0,21.0,64,0.00,,,0.00,meteohub,2013-06-21 13:37:00,
2013-06-21 08:42:00,81.1,67.8,29.99,SSW,200,9.0,21.0,64,0.00,,,0.00,meteohub,2013-06-21 13:42:00,
2013-06-21 08:47:00,81.3,67.5,30.00,SSE,153,5.0,19.0,63,0.00,,,0.00,meteohub,2013-06-21 13:47:00,
2013-06-21 08:52:00,81.5,67.6,30.00,SSW,200,6.0,19.0,63,0.00,,,0.00,meteohub,2013-06-21 13:52:00,
2013-06-21 08:57:00,81.7,67.8,30.00,WSW,248,16.0,18.0,63,0.00,,,0.00,meteohub,2013-06-21 13:57:00,
2013-06-21 09:02:00,81.9,67.6,30.00,SSE,147,11.0,19.0,62,0.00,,,0.00,meteohub,2013-06-21 14:02:00,
2013-06-21 09:07:00,82.0,68.2,30.00,SE,141,6.0,19.0,63,0.00,,,0.00,meteohub,2013-06-21 14:07:00,
2013-06-21 09:12:00,82.2,67.8,30.00,SSW,199,7.0,19.0,62,0.00,,,0.00,meteohub,2013-06-21 14:12:00,
2013-06-21 09:17:00,82.4,68.0,30.00,South,169,12.0,19.0,62,0.00,,,0.00,meteohub,2013-06-21 14:17:00,
2013-06-21 09:22:00,82.6,68.2,30.00,SW,229,16.0,18.0,62,0.00,,,0.00,meteohub,2013-06-21 14:22:00,
2013-06-21 09:27:00,82.6,68.2,30.00,SE,142,8.0,18.0,62,0.00,,,0.00,meteohub,2013-06-21 14:27:00,
2013-06-21 09:32:00,82.9,68.2,29.99,SW,222,11.0,18.0,61,0.00,,,0.00,meteohub,2013-06-21 14:32:00,
2013-06-21 09:38:00,83.1,67.8,30.00,South,187,11.0,18.0,60,0.00,,,0.00,meteohub,2013-06-21 14:38:00,
2013-06-21 09:43:00,83.1,67.8,30.00,SSW,208,8.0,16.0,60,0.00,,,0.00,meteohub,2013-06-21 14:43:00,
2013-06-21 09:48:00,83.3,68.0,30.00,South,190,5.0,16.0,60,0.00,,,0.00,meteohub,2013-06-21 14:48:00,
2013-06-21 09:53:00,83.8,68.5,30.00,South,186,4.0,18.0,60,0.00,,,0.00,meteohub,2013-06-21 14:53:00,
2013-06-21 09:58:00,84.2,67.8,30.00,SW,225,12.0,18.0,58,0.00,,,0.00,meteohub,2013-06-21 14:58:00,
2013-06-21 10:03:00,84.6,68.2,30.00,South,181,7.0,18.0,58,0.00,,,0.00,meteohub,2013-06-21 15:03:00,
2013-06-21 10:08:00,84.7,68.4,30.00,South,172,8.0,18.0,58,0.00,,,0.00,meteohub,2013-06-21 15:08:00,
2013-06-21 10:13:00,85.3,68.4,30.00,SW,224,4.0,23.0,57,0.00,,,0.00,meteohub,2013-06-21 15:13:00,
2013-06-21 10:18:00,85.6,68.7,30.00,South,171,7.0,23.0,57,0.00,,,0.00,meteohub,2013-06-21 15:18:00,
2013-06-21 10:23:00,86.2,68.2,30.00,SSW,207,11.0,23.0,55,0.00,,,0.00,meteohub,2013-06-21 15:23:00,
2013-06-21 10:28:00,86.7,68.0,29.99,South,184,9.0,22.0,54,0.00,,,0.00,meteohub,2013-06-21 15:28:00,
2013-06-21 10:33:00,87.4,68.7,29.99,South,187,8.0,25.0,54,0.00,,,0.00,meteohub,2013-06-21 15:33:00,
2013-06-21 10:38:00,88.0,68.2,30.00,South,173,11.0,25.0,52,0.00,,,0.00,meteohub,2013-06-21 15:38:00,
2013-06-21 10:43:00,88.0,68.2,30.00,SSW,212,17.0,25.0,52,0.00,,,0.00,meteohub,2013-06-21 15:43:00,
2013-06-21 10:48:00,88.2,68.4,30.00,SW,228,17.0,22.0,52,0.00,,,0.00,meteohub,2013-06-21 15:48:00,
2013-06-21 10:53:00,88.0,68.2,30.00,SW,214,19.0,26.0,52,0.00,,,0.00,meteohub,2013-06-21 15:53:00,
2013-06-21 10:58:00,88.3,68.5,30.00,SSW,207,11.0,29.0,52,0.00,,,0.00,meteohub,2013-06-21 15:58:00,
2013-06-21 11:03:00,88.5,68.0,30.00,SSW,212,9.0,29.0,51,0.00,,,0.00,meteohub,2013-06-21 16:03:00,
2013-06-21 11:08:00,88.5,68.0,30.00,SW,232,13.0,29.0,51,0.00,,,0.00,meteohub,2013-06-21 16:08:00,
2013-06-21 11:13:00,88.7,68.2,30.00,SSW,210,9.0,25.0,51,0.00,,,0.00,meteohub,2013-06-21 16:13:00,
2013-06-21 11:18:00,88.9,67.8,30.00,SSW,194,5.0,25.0,50,0.00,,,0.00,meteohub,2013-06-21 16:18:00,
2013-06-21 11:23:00,89.1,68.0,30.00,South,190,7.0,25.0,50,0.00,,,0.00,meteohub,2013-06-21 16:23:00,
2013-06-21 11:28:00,89.4,68.4,30.00,SSW,211,8.0,27.0,50,0.00,,,0.00,meteohub,2013-06-21 16:28:00,
2013-06-21 11:33:00,89.6,67.8,30.00,SE,145,6.0,27.0,49,0.00,,,0.00,meteohub,2013-06-21 16:33:00,
2013-06-21 11:38:00,89.6,67.8,30.00,SW,215,8.0,28.0,49,0.00,,,0.00,meteohub,2013-06-21 16:38:00,
2013-06-21 11:43:00,89.8,68.0,30.00,East,94,11.0,28.0,49,0.00,,,0.00,meteohub,2013-06-21 16:43:00,
2013-06-21 11:48:00,90.1,68.4,30.00,ESE,115,8.0,28.0,49,0.00,,,0.00,meteohub,2013-06-21 16:48:00,
2013-06-21 11:54:00,90.5,68.2,30.00,South,187,23.0,23.0,48,0.00,,,0.00,meteohub,2013-06-21 16:54:00,
2013-06-21 11:59:00,90.5,68.2,30.00,SE,142,12.0,23.0,48,0.00,,,0.00,meteohub,2013-06-21 16:59:00,
2013-06-21 12:04:00,90.3,68.0,30.00,SW,218,22.0,24.0,48,0.00,,,0.00,meteohub,2013-06-21 17:04:00,
2013-06-21 12:09:00,90.3,68.5,29.99,SW,221,20.0,24.0,49,0.00,,,0.00,meteohub,2013-06-21 17:09:00,
2013-06-21 12:14:00,90.1,68.4,29.99,SSW,207,5.0,24.0,49,0.00,,,0.00,meteohub,2013-06-21 17:14:00,
2013-06-21 12:19:00,90.1,67.8,29.99,SW,224,17.0,24.0,48,0.00,,,0.00,meteohub,2013-06-21 17:19:00,
2013-06-21 12:24:00,90.1,68.4,29.99,SW,232,14.0,22.0,49,0.00,,,0.00,meteohub,2013-06-21 17:24:00,
2013-06-21 12:29:00,90.1,68.4,29.99,South,186,6.0,24.0,49,0.00,,,0.00,meteohub,2013-06-21 17:29:00,
2013-06-21 12:35:00,90.9,69.1,29.99,South,173,6.0,24.0,49,0.00,,,0.00,meteohub,2013-06-21 17:35:00,
2013-06-21 12:40:00,91.8,68.7,29.98,SW,233,19.0,23.0,47,0.00,,,0.00,meteohub,2013-06-21 17:40:00,
2013-06-21 12:45:00,92.3,68.5,29.98,SSW,205,13.0,19.0,46,0.00,,,0.00,meteohub,2013-06-21 17:45:00,
2013-06-21 12:46:00,92.3,68.5,29.98,SSE,166,8.0,25.0,46,0.00,,,0.00,meteohub,2013-06-21 17:46:00,
2013-06-21 12:47:00,92.5,68.7,29.98,WSW,242,18.0,25.0,46,0.00,,,0.00,meteohub,2013-06-21 17:47:00,
2013-06-21 12:52:00,92.1,68.4,29.98,SSW,209,15.0,25.0,46,0.00,,,0.00,meteohub,2013-06-21 17:52:00,
2013-06-21 12:57:00,91.6,67.8,29.98,SSW,205,11.0,25.0,46,0.00,,,0.00,meteohub,2013-06-21 17:57:00,
2013-06-21 13:02:00,91.6,68.5,29.98,SW,224,15.0,24.0,47,0.00,,,0.00,meteohub,2013-06-21 18:02:00,
2013-06-21 13:07:00,92.5,68.0,29.98,SW,221,14.0,23.0,45,0.00,,,0.00,meteohub,2013-06-21 18:07:00,
2013-06-21 13:13:00,92.7,67.6,29.98,South,188,13.0,23.0,44,0.00,,,0.00,meteohub,2013-06-21 18:13:00,
2013-06-21 13:17:00,92.5,68.0,29.98,South,188,10.0,26.0,45,0.00,,,0.00,meteohub,2013-06-21 18:17:00,
2013-06-21 13:22:00,93.0,68.5,29.98,SSE,166,7.0,26.0,45,0.00,,,0.00,meteohub,2013-06-21 18:22:00,
2013-06-21 13:27:00,92.8,67.6,29.98,SSW,208,9.0,26.0,44,0.00,,,0.00,meteohub,2013-06-21 18:27:00,
2013-06-21 13:32:00,92.5,67.5,29.98,SW,218,7.0,29.0,44,0.00,,,0.00,meteohub,2013-06-21 18:32:00,
2013-06-21 13:37:00,92.8,68.4,29.97,WSW,239,7.0,29.0,45,0.00,,,0.00,meteohub,2013-06-21 18:37:00,
2013-06-21 13:43:00,93.6,68.4,29.98,SW,225,7.0,26.0,44,0.00,,,0.00,meteohub,2013-06-21 18:43:00,
2013-06-21 13:45:00,93.9,68.0,29.98,SSW,204,16.0,26.0,43,0.00,,,0.00,meteohub,2013-06-21 18:45:00,
2013-06-21 13:46:00,93.9,66.6,29.98,SW,232,14.0,23.0,41,0.00,,,0.00,meteohub,2013-06-21 18:46:00,
2013-06-21 13:51:00,94.6,68.0,29.98,SW,219,10.0,22.0,42,0.00,,,0.00,meteohub,2013-06-21 18:51:00,
2013-06-21 13:56:00,94.6,66.6,29.97,SSW,210,11.0,26.0,40,0.00,,,0.00,meteohub,2013-06-21 18:56:00,
2013-06-21 14:01:00,94.5,66.4,29.97,West,264,12.0,26.0,40,0.00,,,0.00,meteohub,2013-06-21 19:01:00,
2013-06-21 14:06:00,94.8,68.2,29.97,SSE,157,11.0,27.0,42,0.00,,,0.00,meteohub,2013-06-21 19:06:00,
2013-06-21 14:11:00,94.8,66.7,29.96,SE,136,24.0,27.0,40,0.00,,,0.00,meteohub,2013-06-21 19:11:00,
2013-06-21 14:16:00,95.2,66.4,29.96,SSW,208,14.0,25.0,39,0.00,,,0.00,meteohub,2013-06-21 19:16:00,
2013-06-21 14:20:00,95.0,65.5,29.96,ESE,107,14.0,25.0,38,0.00,,,0.00,meteohub,2013-06-21 19:20:00,
2013-06-21 14:25:00,94.8,65.3,29.96,SW,218,17.0,28.0,38,0.00,,,0.00,meteohub,2013-06-21 19:25:00,
2013-06-21 14:30:00,94.6,65.8,29.96,SW,216,12.0,28.0,39,0.00,,,0.00,meteohub,2013-06-21 19:30:00,
2013-06-21 14:35:00,94.8,66.7,29.96,SW,224,5.0,28.0,40,0.00,,,0.00,meteohub,2013-06-21 19:35:00,
2013-06-21 14:40:00,94.8,66.7,29.96,SW,218,15.0,27.0,40,0.00,,,0.00,meteohub,2013-06-21 19:40:00,
2013-06-21 14:42:00,94.8,67.5,29.96,South,174,10.0,27.0,41,0.00,,,0.00,meteohub,2013-06-21 19:42:00,
2013-06-21 14:47:00,94.8,66.7,29.96,South,181,15.0,27.0,40,0.00,,,0.00,meteohub,2013-06-21 19:47:00,
2013-06-21 14:52:00,94.5,67.8,29.96,SSW,204,12.0,25.0,42,0.00,,,0.00,meteohub,2013-06-21 19:52:00,
2013-06-21 14:57:00,94.6,68.0,29.96,South,188,13.0,26.0,42,0.00,,,0.00,meteohub,2013-06-21 19:57:00,
2013-06-21 15:03:00,94.8,68.2,29.96,South,188,11.0,26.0,42,0.00,,,0.00,meteohub,2013-06-21 20:03:00,
2013-06-21 15:04:00,95.0,67.6,29.95,SSE,163,6.0,26.0,41,0.00,,,0.00,meteohub,2013-06-21 20:04:00,
2013-06-21 15:09:00,95.0,68.4,29.95,SE,142,25.0,25.0,42,0.00,,,0.00,meteohub,2013-06-21 20:09:00,
2013-06-21 15:11:00,94.8,68.2,29.95,SW,222,12.0,27.0,42,0.00,,,0.00,meteohub,2013-06-21 20:11:00,
2013-06-21 15:14:00,94.6,68.0,29.95,South,178,9.0,27.0,42,0.00,,,0.00,meteohub,2013-06-21 20:14:00,
2013-06-21 15:19:00,94.5,67.1,29.94,South,184,22.0,27.0,41,0.00,,,0.00,meteohub,2013-06-21 20:19:00,
2013-06-21 15:24:00,94.5,67.1,29.94,SSW,211,13.0,29.0,41,0.00,,,0.00,meteohub,2013-06-21 20:24:00,
2013-06-21 15:29:00,94.6,68.0,29.94,SSE,153,25.0,29.0,42,0.00,,,0.00,meteohub,2013-06-21 20:29:00,
2013-06-21 15:34:00,93.9,67.3,29.94,SSW,212,18.0,29.0,42,0.00,,,0.00,meteohub,2013-06-21 20:34:00,
2013-06-21 15:39:00,93.9,68.0,29.94,SSW,205,9.0,28.0,43,0.00,,,0.00,meteohub,2013-06-21 20:39:00,
2013-06-21 15:44:00,93.9,68.0,29.94,South,188,11.0,28.0,43,0.00,,,0.00,meteohub,2013-06-21 20:44:00,
2013-06-21 15:49:00,93.4,66.9,29.94,SSW,193,5.0,27.0,42,0.00,,,0.00,meteohub,2013-06-21 20:49:00,
2013-06-21 15:54:00,93.0,67.3,29.93,South,169,11.0,27.0,43,0.00,,,0.00,meteohub,2013-06-21 20:54:00,
2013-06-21 15:59:00,92.8,68.4,29.93,SE,146,18.0,26.0,45,0.00,,,0.00,meteohub,2013-06-21 20:59:00,
2013-06-21 16:04:00,92.8,67.1,29.92,SSE,166,14.0,26.0,43,0.00,,,0.00,meteohub,2013-06-21 21:04:00,
2013-06-21 16:09:00,92.8,67.6,29.92,SE,129,13.0,26.0,44,0.00,,,0.00,meteohub,2013-06-21 21:09:00,
2013-06-21 16:14:00,93.0,68.5,29.92,ESE,122,5.0,23.0,45,0.00,,,0.00,meteohub,2013-06-21 21:14:00,
2013-06-21 16:19:00,93.4,68.2,29.91,South,187,7.0,22.0,44,0.00,,,0.00,meteohub,2013-06-21 21:19:00,
2013-06-21 16:24:00,93.7,68.5,29.91,SSE,167,12.0,27.0,44,0.00,,,0.00,meteohub,2013-06-21 21:24:00,
2013-06-21 16:29:00,94.3,67.6,29.91,SSE,153,20.0,27.0,42,0.00,,,0.00,meteohub,2013-06-21 21:29:00,
2013-06-21 16:34:00,94.5,67.8,29.91,SSW,197,12.0,30.0,42,0.00,,,0.00,meteohub,2013-06-21 21:34:00,
2013-06-21 16:39:00,94.8,68.2,29.91,West,269,9.0,31.0,42,0.00,,,0.00,meteohub,2013-06-21 21:39:00,
2013-06-21 16:45:00,94.6,68.0,29.91,SE,127,15.0,31.0,42,0.00,,,0.00,meteohub,2013-06-21 21:45:00,
2013-06-21 16:51:00,94.3,67.6,29.91,SW,229,12.0,32.0,42,0.00,,,0.00,meteohub,2013-06-21 21:51:00,
2013-06-21 16:55:00,93.6,69.1,29.91,South,170,7.0,32.0,45,0.00,,,0.00,meteohub,2013-06-21 21:55:00,
2013-06-21 17:00:00,93.4,69.4,29.91,SE,134,18.0,31.0,46,0.00,,,0.00,meteohub,2013-06-21 22:00:00,
2013-06-21 17:05:00,93.6,68.4,29.92,SE,136,18.0,31.0,44,0.00,,,0.00,meteohub,2013-06-21 22:05:00,
2013-06-21 17:11:00,93.7,67.8,29.92,South,169,18.0,27.0,43,0.00,,,0.00,meteohub,2013-06-21 22:11:00,
2013-06-21 17:16:00,93.7,69.3,29.92,South,174,10.0,27.0,45,0.00,,,0.00,meteohub,2013-06-21 22:16:00,
2013-06-21 17:21:00,93.7,69.8,29.92,SSW,211,13.0,25.0,46,0.00,,,0.00,meteohub,2013-06-21 22:21:00,
2013-06-21 17:26:00,93.7,69.8,29.92,SSE,158,12.0,25.0,46,0.00,,,0.00,meteohub,2013-06-21 22:26:00,
2013-06-21 17:31:00,93.6,70.3,29.92,SSW,202,7.0,28.0,47,0.00,,,0.00,meteohub,2013-06-21 22:31:00,
2013-06-21 17:36:00,93.4,69.4,29.92,SW,217,13.0,28.0,46,0.00,,,0.00,meteohub,2013-06-21 22:36:00,
2013-06-21 17:41:00,92.8,69.6,29.92,South,169,14.0,28.0,47,0.00,,,0.00,meteohub,2013-06-21 22:41:00,
2013-06-21 17:46:00,92.5,70.0,29.92,SE,129,8.0,30.0,48,0.00,,,0.00,meteohub,2013-06-21 22:46:00,
2013-06-21 17:51:00,91.9,70.0,29.92,South,176,20.0,30.0,49,0.00,,,0.00,meteohub,2013-06-21 22:51:00,
2013-06-21 17:56:00,91.6,70.3,29.92,SSE,166,11.0,29.0,50,0.00,,,0.00,meteohub,2013-06-21 22:56:00,
2013-06-21 18:01:00,91.6,70.9,29.92,SSE,158,20.0,28.0,51,0.00,,,0.00,meteohub,2013-06-21 23:01:00,
2013-06-21 18:06:00,91.8,70.5,29.92,SE,143,18.0,28.0,50,0.00,,,0.00,meteohub,2013-06-21 23:06:00,
2013-06-21 18:11:00,91.2,70.5,29.92,SW,231,16.0,25.0,51,0.00,,,0.00,meteohub,2013-06-21 23:11:00,
2013-06-21 18:16:00,91.0,70.9,29.92,SSE,159,11.0,25.0,52,0.00,,,0.00,meteohub,2013-06-21 23:16:00,
2013-06-21 18:21:00,91.0,70.3,29.93,South,172,13.0,25.0,51,0.00,,,0.00,meteohub,2013-06-21 23:21:00,
2013-06-21 18:26:00,90.9,70.9,29.92,South,186,19.0,26.0,52,0.00,,,0.00,meteohub,2013-06-21 23:26:00,
2013-06-21 18:31:00,90.7,70.7,29.93,SE,139,20.0,26.0,52,0.00,,,0.00,meteohub,2013-06-21 23:31:00,
2013-06-21 18:36:00,90.3,70.9,29.93,SSE,158,23.0,26.0,53,0.00,,,0.00,meteohub,2013-06-21 23:36:00,
2013-06-21 18:41:00,90.0,71.1,29.93,SSE,158,11.0,28.0,54,0.00,,,0.00,meteohub,2013-06-21 23:41:00,
2013-06-21 18:46:00,89.8,70.9,29.93,South,171,14.0,28.0,54,0.00,,,0.00,meteohub,2013-06-21 23:46:00,
2013-06-21 18:51:00,89.8,70.9,29.93,SW,217,17.0,28.0,54,0.00,,,0.00,meteohub,2013-06-21 23:51:00,
2013-06-21 18:56:00,89.6,70.7,29.93,SSW,195,19.0,23.0,54,0.00,,,0.00,meteohub,2013-06-21 23:56:00,
2013-06-21 19:01:00,89.2,70.3,29.94,SW,215,14.0,28.0,54,0.00,,,0.00,meteohub,2013-06-22 00:01:00,
2013-06-21 19:06:00,89.1,70.7,29.94,South,173,9.0,29.0,55,0.00,,,0.00,meteohub,2013-06-22 00:06:00,
2013-06-21 19:11:00,89.1,70.7,29.94,SE,134,10.0,29.0,55,0.00,,,0.00,meteohub,2013-06-22 00:11:00,
2013-06-21 19:16:00,89.2,70.9,29.94,South,181,11.0,25.0,55,0.00,,,0.00,meteohub,2013-06-22 00:16:00,
2013-06-21 19:21:00,89.2,70.9,29.94,SE,145,5.0,24.0,55,0.00,,,0.00,meteohub,2013-06-22 00:21:00,
2013-06-21 19:26:00,89.1,70.2,29.94,SSW,201,10.0,17.0,54,0.00,,,0.00,meteohub,2013-06-22 00:26:00,
2013-06-21 19:31:00,89.1,70.7,29.94,SW,214,8.0,23.0,55,0.00,,,0.00,meteohub,2013-06-22 00:31:00,
2013-06-21 19:36:00,88.9,70.7,29.94,South,179,14.0,23.0,55,0.00,,,0.00,meteohub,2013-06-22 00:36:00,
2013-06-21 19:41:00,88.9,70.7,29.94,East,99,4.0,22.0,55,0.00,,,0.00,meteohub,2013-06-22 00:41:00,
2013-06-21 19:46:00,88.5,70.9,29.94,SSW,211,10.0,21.0,56,0.00,,,0.00,meteohub,2013-06-22 00:46:00,
2013-06-21 19:51:00,88.5,70.9,29.94,SSW,200,4.0,22.0,56,0.00,,,0.00,meteohub,2013-06-22 00:51:00,
2013-06-21 19:56:00,88.5,70.9,29.94,SSE,152,16.0,22.0,56,0.00,,,0.00,meteohub,2013-06-22 00:56:00,
2013-06-21 20:01:00,88.5,70.9,29.94,SSW,203,12.0,22.0,56,0.00,,,0.00,meteohub,2013-06-22 01:01:00,
2013-06-21 20:06:00,88.5,70.9,29.94,SW,217,14.0,23.0,56,0.00,,,0.00,meteohub,2013-06-22 01:06:00,
2013-06-21 20:11:00,88.3,70.7,29.94,SSE,155,8.0,23.0,56,0.00,,,0.00,meteohub,2013-06-22 01:11:00,
2013-06-21 20:16:00,88.2,71.1,29.94,SE,133,7.0,23.0,57,0.00,,,0.00,meteohub,2013-06-22 01:16:00,
2013-06-21 20:21:00,88.0,71.4,29.94,SSW,203,12.0,21.0,58,0.00,,,0.00,meteohub,2013-06-22 01:21:00,
2013-06-21 20:26:00,87.6,71.1,29.94,SSW,197,16.0,21.0,58,0.00,,,0.00,meteohub,2013-06-22 01:26:00,
2013-06-21 20:31:00,87.4,71.4,29.94,South,178,15.0,21.0,59,0.00,,,0.00,meteohub,2013-06-22 01:31:00,
2013-06-21 20:36:00,87.3,71.2,29.94,South,169,8.0,20.0,59,0.00,,,0.00,meteohub,2013-06-22 01:36:00,
2013-06-21 20:41:00,87.1,71.4,29.94,SE,145,10.0,20.0,60,0.00,,,0.00,meteohub,2013-06-22 01:41:00,
2013-06-21 20:46:00,86.9,71.8,29.94,SSE,160,9.0,20.0,61,0.00,,,0.00,meteohub,2013-06-22 01:46:00,
2013-06-21 20:51:00,86.7,71.6,29.94,SSE,158,9.0,19.0,61,0.00,,,0.00,meteohub,2013-06-22 01:51:00,
2013-06-21 20:56:00,86.5,72.0,29.94,SE,134,10.0,18.0,62,0.00,,,0.00,meteohub,2013-06-22 01:56:00,
2013-06-21 21:01:00,86.4,71.8,29.94,SSE,162,17.0,17.0,62,0.00,,,0.00,meteohub,2013-06-22 02:01:00,
2013-06-21 21:06:00,86.2,71.6,29.94,SSE,155,6.0,18.0,62,0.00,,,0.00,meteohub,2013-06-22 02:06:00,
2013-06-21 21:11:00,85.8,71.2,29.94,WSW,238,12.0,18.0,62,0.00,,,0.00,meteohub,2013-06-22 02:11:00,
2013-06-21 21:16:00,85.8,71.8,29.94,SSW,208,10.0,19.0,63,0.00,,,0.00,meteohub,2013-06-22 02:16:00,
2013-06-21 21:21:00,85.6,71.6,29.94,SE,136,9.0,19.0,63,0.00,,,0.00,meteohub,2013-06-22 02:21:00,
2013-06-21 21:26:00,85.5,72.0,29.94,SSE,155,11.0,20.0,64,0.00,,,0.00,meteohub,2013-06-22 02:26:00,
2013-06-21 21:31:00,85.3,71.8,29.94,East,85,6.0,21.0,64,0.00,,,0.00,meteohub,2013-06-22 02:31:00,
2013-06-21 21:36:00,85.3,71.8,29.94,SW,231,19.0,21.0,64,0.00,,,0.00,meteohub,2013-06-22 02:36:00,
2013-06-21 21:41:00,84.9,71.4,29.94,South,179,17.0,21.0,64,0.00,,,0.00,meteohub,2013-06-22 02:41:00,
2013-06-21 21:47:00,84.9,71.8,29.94,SSE,151,5.0,19.0,65,0.00,,,0.00,meteohub,2013-06-22 02:47:00,
2013-06-21 21:52:00,84.7,71.2,29.94,SSE,150,6.0,20.0,64,0.00,,,0.00,meteohub,2013-06-22 02:52:00,
2013-06-21 21:57:00,84.6,71.1,29.95,SSW,192,10.0,20.0,64,0.00,,,0.00,meteohub,2013-06-22 02:57:00,
2013-06-21 22:02:00,84.6,71.4,29.95,SW,224,6.0,21.0,65,0.00,,,0.00,meteohub,2013-06-22 03:02:00,
2013-06-21 22:07:00,84.6,71.1,29.96,SSE,163,6.0,21.0,64,0.00,,,0.00,meteohub,2013-06-22 03:07:00,
2013-06-21 22:12:00,84.4,70.9,29.96,South,174,13.0,22.0,64,0.00,,,0.00,meteohub,2013-06-22 03:12:00,
2013-06-21 22:17:00,84.4,70.9,29.96,South,170,13.0,23.0,64,0.00,,,0.00,meteohub,2013-06-22 03:17:00,
2013-06-21 22:22:00,84.0,70.5,29.96,SSE,165,5.0,23.0,64,0.00,,,0.00,meteohub,2013-06-22 03:22:00,
2013-06-21 22:27:00,83.8,70.3,29.96,SE,145,16.0,23.0,64,0.00,,,0.00,meteohub,2013-06-22 03:27:00,
2013-06-21 22:32:00,83.7,70.7,29.97,SSE,166,12.0,23.0,65,0.00,,,0.00,meteohub,2013-06-22 03:32:00,
2013-06-21 22:37:00,83.7,70.7,29.97,South,170,6.0,24.0,65,0.00,,,0.00,meteohub,2013-06-22 03:37:00,
2013-06-21 22:42:00,83.5,70.5,29.97,SSE,161,7.0,24.0,65,0.00,,,0.00,meteohub,2013-06-22 03:42:00,
2013-06-21 22:47:00,83.3,70.3,29.97,South,176,7.0,24.0,65,0.00,,,0.00,meteohub,2013-06-22 03:47:00,
2013-06-21 22:52:00,83.1,69.6,29.97,SE,134,10.0,22.0,64,0.00,,,0.00,meteohub,2013-06-22 03:52:00,
2013-06-21 22:57:00,82.9,70.0,29.98,SSE,161,12.0,21.0,65,0.00,,,0.00,meteohub,2013-06-22 03:57:00,
2013-06-21 23:01:00,82.9,69.4,29.98,SSE,165,12.0,21.0,64,0.00,,,0.00,meteohub,2013-06-22 04:01:00,
2013-06-21 23:02:00,82.9,69.4,29.98,SE,130,7.0,21.0,64,0.00,,,0.00,meteohub,2013-06-22 04:02:00,
2013-06-21 23:07:00,82.8,69.3,29.98,SSE,148,13.0,19.0,64,0.00,,,0.00,meteohub,2013-06-22 04:07:00,
2013-06-21 23:12:00,82.8,69.3,29.98,SSE,155,8.0,20.0,64,0.00,,,0.00,meteohub,2013-06-22 04:12:00,
2013-06-21 23:17:00,82.6,69.1,29.98,South,184,11.0,22.0,64,0.00,,,0.00,meteohub,2013-06-22 04:17:00,
2013-06-21 23:22:00,82.4,69.4,29.98,SSE,149,12.0,22.0,65,0.00,,,0.00,meteohub,2013-06-22 04:22:00,
2013-06-21 23:27:00,82.2,69.3,29.98,SSE,155,13.0,20.0,65,0.00,,,0.00,meteohub,2013-06-22 04:27:00,
2013-06-21 23:32:00,82.0,69.1,29.98,SW,218,10.0,20.0,65,0.00,,,0.00,meteohub,2013-06-22 04:32:00,
2013-06-21 23:37:00,81.9,69.4,29.98,SSE,158,13.0,20.0,66,0.00,,,0.00,meteohub,2013-06-22 04:37:00,
2013-06-21 23:42:00,81.9,69.4,29.98,ESE,119,15.0,20.0,66,0.00,,,0.00,meteohub,2013-06-22 04:42:00,
2013-06-21 23:47:00,81.7,69.3,29.98,SE,124,5.0,24.0,66,0.00,,,0.00,meteohub,2013-06-22 04:47:00,
2013-06-21 23:52:00,81.5,69.1,29.99,South,188,12.0,24.0,66,0.00,,,0.00,meteohub,2013-06-22 04:52:00,
2013-06-21 23:57:00,81.3,68.9,29.99,SE,135,5.0,24.0,66,0.00,,,0.00,meteohub,2013-06-22 04:57:00,